Preston, MN

3:16 AM CDT on April 21, 2018 (GMT -0500)
Preston

Weather History for KFKA - December, 2012

Change the Weather History Date:

Thursday, December 6, 2012

  Actual Average (KRST) Record (KRST)
Temperature  
Mean Temperature 38 °F -  
Max Temperature 44 °F 27 °F 48 °F (1911)
Min Temperature 32 °F 11 °F -28 °F (1972)
Degree Days  
Heating Degree Days 26    
Moisture  
Dew Point 33 °F    
Average Humidity 80    
Maximum Humidity 89    
Minimum Humidity 67    
Precipitation  
Precipitation 0.05 in - - ()
Sea Level Pressure  
Sea Level Pressure 29.89 in    
Wind  
Wind Speed 15 mph (WSW)    
Max Wind Speed 25 mph    
Max Gust Speed 32 mph    
Visibility 10 miles    
Events Rain    
Averages and records for this station are not official NWS values.
T = Trace of Precipitation, MM = Missing Value Source: NWS Daily Summary

Daily Weather History Graph

Daily Weather History Graph

Search for Another Location

Airport or City:

Astronomy

Dec. 06, 2012 Rise Set
Actual Time 7:28 AM CST 4:31 PM CST
Civil Twilight 6:55 AM CST 5:04 PM CST
Nautical Twilight 6:19 AM CST 5:40 PM CST
Astronomical Twilight 5:44 AM CST 6:15 PM CST
Moon No Moon Rise 12:09 PM CST (12/6)
Length of Visible Light 10h 08m
Length of Day
9h 03m
Waning Gibbous, 49% of the Moon is Illuminated
Dec 6
Waning Gibbous
Dec 13
New
Dec 19
First Quarter
Dec 28
Full
Jan 4
Last Quarter

Hourly Weather History & Observations

Time (CST) Temp. Windchill Dew Point Humidity Pressure Visibility Wind Dir Wind Speed Gust Speed Precip Events Conditions
12:10 AM 37.4 °F 27.2 °F 27.3 °F 67% 29.99 in 10.0 mi South 19.6 mph 23.0 mph N/A   Overcast
12:50 AM 36.9 °F 27.8 °F 28.4 °F 71% 29.98 in 10.0 mi South 15.0 mph 21.9 mph N/A   Overcast
1:09 AM 36.9 °F 25.9 °F 28.9 °F 73% 29.95 in 10.0 mi South 21.9 mph 26.5 mph N/A   Mostly Cloudy
1:30 AM 36.7 °F 26.9 °F 29.3 °F 75% 29.96 in 10.0 mi South 17.3 mph 21.9 mph N/A   Scattered Clouds
1:50 AM 37.2 °F 27.9 °F 30.0 °F 75% 29.95 in 10.0 mi South 16.1 mph - N/A   Mostly Cloudy
2:10 AM 37.8 °F 28.3 °F 30.7 °F 76% 29.94 in 10.0 mi South 17.3 mph 27.6 mph N/A   Mostly Cloudy
2:30 AM 38.3 °F 27.1 °F 31.1 °F 75% 29.92 in 10.0 mi South 25.3 mph 31.1 mph N/A   Overcast
2:50 AM 38.3 °F 28.7 °F 31.5 °F 76% 29.92 in 10.0 mi South 18.4 mph 27.6 mph N/A   Overcast
3:10 AM 38.5 °F 28.3 °F 31.6 °F 76% 29.91 in 10.0 mi South 20.7 mph 28.8 mph N/A   Overcast
3:30 AM 38.5 °F 28.3 °F 32.0 °F 78% 29.90 in 10.0 mi South 20.7 mph 27.6 mph N/A   Overcast
3:50 AM 37.9 °F 27.9 °F 32.0 °F 79% 29.90 in 10.0 mi South 19.6 mph 25.3 mph N/A   Overcast
4:10 AM 37.9 °F 27.1 °F 32.0 °F 79% 29.89 in 10.0 mi South 23.0 mph 32.2 mph N/A   Overcast
4:30 AM 37.9 °F 28.5 °F 32.0 °F 79% 29.89 in 10.0 mi South 17.3 mph 24.2 mph N/A   Overcast
4:50 AM 37.9 °F 27.9 °F 32.0 °F 79% 29.88 in 10.0 mi South 19.6 mph 26.5 mph N/A   Mostly Cloudy
5:10 AM 38.3 °F 29.0 °F 32.0 °F 78% 29.87 in 10.0 mi South 17.3 mph 25.3 mph N/A   Mostly Cloudy
5:30 AM 38.7 °F 29.5 °F 32.2 °F 78% 29.87 in 10.0 mi South 17.3 mph 25.3 mph N/A   Overcast
5:50 AM 39.2 °F 30.5 °F 32.4 °F 76% 29.87 in 10.0 mi South 16.1 mph 23.0 mph N/A   Overcast
6:10 AM 39.6 °F 31.3 °F 32.5 °F 76% 29.88 in 10.0 mi South 15.0 mph 20.7 mph N/A   Overcast
6:30 AM 39.7 °F 31.5 °F 33.4 °F 78% 29.88 in 10.0 mi SSW 15.0 mph 24.2 mph N/A Rain Light Rain
6:49 AM 39.0 °F 31.0 °F 34.0 °F 82% 29.88 in 10.0 mi South 13.8 mph 18.4 mph N/A Rain Light Rain
7:10 AM 38.8 °F 30.8 °F 34.2 °F 83% 29.88 in 10.0 mi South 13.8 mph - N/A   Overcast
7:30 AM 39.0 °F 31.0 °F 34.2 °F 83% 29.88 in 10.0 mi South 13.8 mph - N/A   Overcast
7:49 AM 38.8 °F 32.1 °F 34.0 °F 83% 29.88 in 10.0 mi South 10.4 mph - N/A   Light Drizzle
8:10 AM 39.0 °F 32.8 °F 34.2 °F 83% 29.88 in 10.0 mi South 9.2 mph 16.1 mph N/A   Overcast
8:30 AM 39.4 °F 32.7 °F 34.2 °F 82% 29.88 in 10.0 mi SSW 10.4 mph - N/A Rain Light Rain
8:50 AM 39.4 °F 32.3 °F 34.7 °F 83% 29.88 in 7.0 mi SSW 11.5 mph - 0.01 in Rain Light Rain
9:10 AM 38.8 °F 30.8 °F 35.2 °F 87% 29.86 in 3.0 mi South 13.8 mph - 0.03 in Rain Rain
9:30 AM 38.8 °F 30.4 °F 35.8 °F 89% 29.86 in 7.0 mi SSW 15.0 mph - 0.04 in Rain Light Rain
9:50 AM 39.4 °F 31.8 °F 36.5 °F 89% 29.87 in 10.0 mi SSW 12.7 mph 17.3 mph 0.04 in   Overcast
10:10 AM 40.1 °F 33.2 °F 36.7 °F 88% 29.87 in 10.0 mi SW 11.5 mph - N/A   Overcast
10:30 AM 40.3 °F 33.0 °F 37.0 °F 88% 29.88 in 10.0 mi SW 12.7 mph 16.1 mph N/A   Overcast
10:50 AM 40.6 °F 35.4 °F 37.4 °F 88% 29.87 in 10.0 mi SSW 8.1 mph - N/A   Overcast
11:10 AM 41.2 °F 35.0 °F 37.8 °F 88% 29.86 in 10.0 mi SSW 10.4 mph - N/A   Overcast
11:30 AM 41.9 °F 36.3 °F 38.3 °F 87% 29.86 in 10.0 mi SW 9.2 mph - N/A   Mostly Cloudy
11:50 AM 42.3 °F 36.3 °F 37.8 °F 84% 29.85 in 10.0 mi SW 10.4 mph - N/A   Mostly Cloudy
12:10 PM 42.8 °F 37.0 °F 37.9 °F 83% 29.84 in 10.0 mi WSW 10.4 mph 16.1 mph N/A   Overcast
12:30 PM 42.8 °F 38.0 °F 37.8 °F 82% 29.84 in 10.0 mi West 8.1 mph - N/A   Mostly Cloudy
12:50 PM 43.2 °F 37.4 °F 38.3 °F 83% 29.84 in 10.0 mi West 10.4 mph - N/A   Mostly Cloudy
1:10 PM 43.7 °F 37.7 °F 38.3 °F 81% 29.85 in 10.0 mi WSW 11.5 mph - N/A   Scattered Clouds
1:30 PM 44.4 °F 38.2 °F 38.3 °F 79% 29.84 in 10.0 mi West 12.7 mph 17.3 mph N/A   Scattered Clouds
1:50 PM 44.1 °F 37.4 °F 38.3 °F 80% 29.84 in 10.0 mi West 13.8 mph - N/A   Scattered Clouds
2:10 PM 43.2 °F 36.6 °F 36.0 °F 76% 29.84 in 10.0 mi West 12.7 mph - N/A   Clear
2:29 PM 42.8 °F 36.2 °F 35.6 °F 76% 29.84 in 10.0 mi West 12.7 mph - N/A   Clear
2:50 PM 42.3 °F 35.9 °F 35.8 °F 78% 29.85 in 10.0 mi WNW 11.5 mph - N/A   Clear
3:10 PM 41.9 °F 35.0 °F 35.6 °F 78% 29.86 in 10.0 mi WNW 12.7 mph - N/A   Clear
3:30 PM 41.0 °F 33.9 °F 34.7 °F 78% 29.87 in 10.0 mi WNW 12.7 mph - N/A   Clear
3:50 PM 40.5 °F 34.1 °F 34.3 °F 79% 29.87 in 10.0 mi WNW 10.4 mph - N/A   Clear
4:10 PM 39.2 °F 33.0 °F 34.0 °F 82% 29.88 in 10.0 mi WNW 9.2 mph - N/A   Clear
4:30 PM 39.2 °F 32.5 °F 34.3 °F 83% 29.89 in 10.0 mi West 10.4 mph - N/A   Mostly Cloudy
4:50 PM 39.2 °F 32.0 °F 34.0 °F 82% 29.89 in 10.0 mi WNW 11.5 mph - N/A   Scattered Clouds
5:09 PM 38.3 °F 31.4 °F 33.1 °F 81% 29.89 in 10.0 mi WNW 10.4 mph - N/A   Scattered Clouds
5:30 PM 37.9 °F 30.9 °F 32.5 °F 81% 29.89 in 10.0 mi WNW 10.4 mph - N/A   Scattered Clouds
5:50 PM 37.8 °F 31.8 °F 32.0 °F 80% 29.90 in 10.0 mi WNW 8.1 mph - N/A   Scattered Clouds
6:10 PM 37.4 °F 30.8 °F 32.0 °F 81% 29.91 in 10.0 mi WNW 9.2 mph - N/A   Clear
6:30 PM 36.9 °F 30.7 °F 32.0 °F 83% 29.91 in 10.0 mi WNW 8.1 mph - N/A   Clear
6:50 PM 36.7 °F 29.9 °F 31.6 °F 82% 29.91 in 10.0 mi WNW 9.2 mph - N/A   Scattered Clouds
7:10 PM 36.7 °F 29.4 °F 31.8 °F 83% 29.92 in 10.0 mi WNW 10.4 mph - N/A   Overcast
7:30 PM 36.3 °F 28.0 °F 30.6 °F 80% 29.92 in 10.0 mi NW 12.7 mph - N/A   Mostly Cloudy
7:50 PM 36.1 °F 26.9 °F 29.5 °F 77% 29.92 in 10.0 mi NW 15.0 mph - N/A   Clear
8:30 PM 36.1 °F 28.7 °F 28.8 °F 75% 29.93 in 10.0 mi NNW 10.4 mph - N/A   Overcast
8:50 PM 35.8 °F 27.8 °F 28.6 °F 75% 29.93 in 10.0 mi NW 11.5 mph - N/A   Overcast
9:10 PM 35.6 °F 28.0 °F 28.4 °F 75% 29.93 in 10.0 mi NW 10.4 mph - N/A   Overcast
9:30 PM 35.2 °F 28.8 °F 28.4 °F 76% 29.94 in 10.0 mi NNW 8.1 mph - N/A   Overcast
9:50 PM 34.9 °F 29.0 °F 28.4 °F 77% 29.94 in 10.0 mi NNW 6.9 mph - N/A   Overcast
10:10 PM 34.7 °F 27.5 °F 28.4 °F 78% 29.94 in 10.0 mi NW 9.2 mph - N/A   Overcast
10:50 PM 33.8 °F 27.0 °F 28.4 °F 81% 29.94 in 10.0 mi NNW 8.1 mph - N/A   Overcast
11:10 PM 33.8 °F 27.0 °F 28.2 °F 80% 29.95 in 10.0 mi NW 8.1 mph - N/A   Overcast
11:30 PM 33.3 °F 26.4 °F 27.7 °F 80% 29.95 in 10.0 mi NNW 8.1 mph - N/A   Overcast
11:50 PM 32.9 °F 25.3 °F 27.3 °F 80% 29.95 in 10.0 mi NNW 9.2 mph - N/A   Overcast